Weather Roundup
Issued by NWS Chicago, IL

Home | Current Version | Previous Version | Graphics & Text | Print | Product List | Glossary On
Versions: 1 2 3 4 5 6 7 8 9 10 11 12 13 14 15 16 17 18 19 20 21 22 23 24 25 26 27 28 29 30 31 32 33 34 35 36 37 38 39 40 41 42 43 44 45 46 47 48 49 50
000
NZUS59 KLOT 291708
HRRLOT

CHICAGO AREA WEATHER ROUNDUP
NATIONAL WEATHER SERVICE CHICAGO/ROMEOVILLE IL
1200 PM CDT THU SEP 29 2016

NOTE: "FAIR" INDICATES FEW OR NO CLOUDS BELOW 12,000 FEET WITH NO
SIGNIFICANT WEATHER AND/OR OBSTRUCTIONS TO VISIBILITY.

* THESE STATIONS ARE NOT UNDER NWS QUALITY CONTROL. THEY ALSO MAY NOT
  REPORT WEATHER SUCH AS PRECIPITATION OR FOG.

ILZ005-006-012>014-019>023-291800-
NORTHEAST ILLINOIS

CITY           SKY/WX    TMP DP  RH WIND       PRES   REMARKS
OHARE          LGT RAIN  63  58  83 NE22G30   30.18R
MIDWAY         LGT RAIN  65  58  78 NE17G28   30.17R FOG
AURORA         LGT RAIN  63  58  83 NE17      30.20R
LANSING*       LGT RAIN  63  61  94 NE12      30.16S
JOLIET*        DRIZZLE   65  60  84 NE12G22   30.17S
WAUKEGAN       CLOUDY    62  57  83 N14G22    30.22R
DUPAGE AIRPORT CLOUDY    63  57  81 N22G28    30.19R
WHEELING       LGT RAIN  64  57  78 NE14G28   30.21R
KANKAKEE*      CLOUDY    63  58  82 NE12      30.16R
MORRIS*        CLOUDY    63  61  91 N6        30.17R
LEWIS AIRPORT* CLOUDY    64  61  90 NE16G24   30.17S
NORTHERLY ISL    N/A     62  58  86 NE15        N/A
$$

WIZ051-052-058>065-066-070>072-291800-
SOUTHEAST WISCONSIN

CITY           SKY/WX    TMP DP  RH WIND       PRES   REMARKS
MILWAUKEE      PTSUNNY   63  56  78 N15G24    30.28R
KENOSHA*       CLOUDY    63  55  75 NE17G26   30.24R
RACINE*        CLOUDY    63  55  75 NE17G25   30.26R
BURLINGTON     PTSUNNY   64  54  69 NE20G26   30.26R
WAUKESHA       CLOUDY    63  54  72 NE23G31   30.29R
WEST BEND      PTSUNNY   70  63  78 NE20G30   30.30S
$$

INZ001>003-010>013-019-020-291800-
NORTHWEST INDIANA

CITY           SKY/WX    TMP DP  RH WIND       PRES   REMARKS
GARY*          LGT RAIN  64  61  88 NE12G23   30.16R
MICHIGAN CITY* NOT AVBL
RENSSELAER*    NOT AVBL
VALPARAISO     CLOUDY    61  58  90 N8        30.15R
$$

LMZ740>746-291800-
SOUTHERN LAKE MICHIGAN

STATION/POSITION TIME  SKY/WX   TEMP WIND        PRES    VSBY
                                AIR  DIR/SP/G
                 (UTC)          (F)  (DEG/KT/KT) (MB)    (MI)
HARRISON CRIB    1640            63   40/ 24/ 26   N/A
BURNHAM HARBOR   1700            62   20/ 12/ 17   N/A
CALUMET HARBOR   1642            62   20/ 16/ 23 1021.0R
BURNS HARBOR     1640            62   50/ 23/ 27 1021.0S
MICHIGAN CITY    1640            61   30/ 23/ 25   N/A
$$

ABBREVIATIONS USED IN REMARKS
   TC - TEMPERATURE IN CELSIUS
  WCI - WIND CHILL INDEX
   HX - HEAT INDEX
  VSB - VISIBILITY
$$




USA.gov is the U.S. government's official web portal to all federal, state and local government web resources and services.